Location: Gälforsberget
(66.6500°N, 22.4167°E)
Time: 20:38:40
(UTC+00:00)

Cosmos 332 Rocket - Pass Details

Date: 11 April 2026
Orbit: 672 x 693 km, 74.0° (Epoch: 11 May)

Event Time Altitude Azimuth Distance (km) Brightness Sun altitude
Rises 22:28:34 0° 317° (NW) 3,082 7.9 -14.8°
Reaches altitude 10° 22:30:54 10° 316° (NW) 2,160 7.0 -14.8°
Maximum altitude 22:35:45 74° 233° (SW) 724 3.7 -14.8°
Enters shadow 22:39:13 19° 150° (SSE) 1,617 5.2 -14.7°
